Molokai, HI

1:48 PM HST on December 13, 2017 (GMT -1000)
Molokai

Weather History for PHMK - November, 2011

Change the Weather History Date:

Tuesday, November 22, 2011

  Actual Average Record
Temperature  
Mean Temperature 74 °F -  
Max Temperature 79 °F 81 °F 87 °F (1982)
Min Temperature 69 °F 67 °F 59 °F (1958)
Cooling Degree Days 9    
Growing Degree Days 24 (Base 50)    
Moisture  
Dew Point 65 °F    
Average Humidity 75    
Maximum Humidity 88    
Minimum Humidity 58    
Precipitation  
Precipitation 0.05 in - - ()
Sea Level Pressure  
Sea Level Pressure 30.13 in    
Wind  
Wind Speed 13 mph (NE)    
Max Wind Speed 20 mph    
Max Gust Speed 31 mph    
Visibility 9 miles    
Events Rain    
Averages and records for this station are not official NWS values.
T = Trace of Precipitation, MM = Missing Value Source: NWS Daily Summary

Daily Weather History Graph

Daily Weather History Graph

Search for Another Location

Airport or City:

Trip Planner

Search our weather history database for the weather conditions in past years. The results will help you decide how hot, cold, wet, or windy it might be!

Date:

Astronomy

Nov. 22, 2011 Rise Set
Actual Time 6:43 AM HST 5:45 PM HST
Civil Twilight 6:19 AM HST 6:09 PM HST
Nautical Twilight 5:52 AM HST 6:36 PM HST
Astronomical Twilight 5:25 AM HST 7:03 PM HST
Moon 4:01 AM HST (11/22) 3:42 PM HST (11/22)
Length of Visible Light 11h 49m
Length of Day
11h 02m
Waning Crescent, 8% of the Moon is Illuminated
Nov 22
Waning Crescent
Nov 24
New
Dec 1
First Quarter
Dec 10
Full
Dec 17
Last Quarter

Hourly Weather History & Observations

Time (HST) Temp. Dew Point Humidity Pressure Visibility Wind Dir Wind Speed Gust Speed Precip Events Conditions
12:54 AM 71.1 °F 66.9 °F 87% 30.12 in 10.0 mi NNE 12.7 mph 23.0 mph 0.00 in   Partly Cloudy
1:52 AM 71.6 °F 66.2 °F 83% 30.10 in 10.0 mi NE 12.7 mph 21.9 mph N/A   Partly Cloudy
1:54 AM 71.1 °F 66.0 °F 84% 30.10 in 10.0 mi NE 10.4 mph 21.9 mph N/A   Partly Cloudy
2:54 AM 71.1 °F 66.9 °F 87% 30.09 in 10.0 mi NE 12.7 mph 21.9 mph 0.00 in   Scattered Clouds
3:54 AM 71.1 °F 66.0 °F 84% 30.08 in 10.0 mi NNE 13.8 mph 20.7 mph 0.00 in   Mostly Cloudy
4:54 AM 71.1 °F 66.0 °F 84% 30.09 in 10.0 mi NE 10.4 mph 18.4 mph 0.00 in   Overcast
5:24 AM 71.6 °F 66.2 °F 83% 30.09 in 5.0 mi NE 12.7 mph 17.3 mph 0.00 in Rain Light Rain
5:51 AM 69.8 °F 66.2 °F 88% 30.09 in 10.0 mi NE 12.7 mph 26.5 mph 0.01 in   Mostly Cloudy
5:54 AM 71.1 °F 66.0 °F 84% 30.11 in 10.0 mi NE 11.5 mph 26.5 mph 0.01 in   Mostly Cloudy
6:54 AM 71.1 °F 66.0 °F 84% 30.13 in 8.0 mi NE 6.9 mph - 0.00 in Rain Light Rain
7:54 AM 73.9 °F 66.0 °F 76% 30.15 in 10.0 mi NE 13.8 mph 21.9 mph 0.00 in   Partly Cloudy
8:54 AM 73.0 °F 66.0 °F 79% 30.17 in 10.0 mi NE 15.0 mph 28.8 mph 0.00 in   Scattered Clouds
9:54 AM 75.9 °F 64.9 °F 69% 30.16 in 10.0 mi NNE 17.3 mph 26.5 mph 0.00 in   Scattered Clouds
10:54 AM 78.1 °F 64.9 °F 64% 30.15 in 10.0 mi NE 17.3 mph 26.5 mph N/A   Scattered Clouds
11:54 AM 78.1 °F 63.0 °F 60% 30.12 in 10.0 mi NNE 19.6 mph 28.8 mph N/A   Clear
12:54 PM 79.0 °F 63.0 °F 58% 30.12 in 10.0 mi NE 19.6 mph 31.1 mph N/A   Scattered Clouds
1:54 PM 78.1 °F 63.0 °F 60% 30.10 in 10.0 mi NE 17.3 mph 28.8 mph N/A   Scattered Clouds
2:54 PM 78.1 °F 62.1 °F 58% 30.09 in 10.0 mi NE 13.8 mph 31.1 mph N/A   Scattered Clouds
3:54 PM 75.9 °F 62.1 °F 62% 30.10 in 10.0 mi NE 18.4 mph 31.1 mph N/A   Partly Cloudy
4:54 PM 75.0 °F 63.0 °F 66% 30.12 in 10.0 mi NE 17.3 mph 26.5 mph N/A   Scattered Clouds
5:54 PM 73.0 °F 63.0 °F 71% 30.14 in 10.0 mi NE 11.5 mph 24.2 mph N/A   Partly Cloudy
6:54 PM 73.0 °F 63.0 °F 71% 30.15 in 10.0 mi NE 13.8 mph 21.9 mph N/A   Scattered Clouds
7:54 PM 73.0 °F 64.0 °F 73% 30.17 in 10.0 mi NE 16.1 mph 26.5 mph 0.00 in   Mostly Cloudy
8:54 PM 73.0 °F 64.0 °F 73% 30.18 in 10.0 mi NE 8.1 mph 19.6 mph N/A   Overcast
9:49 PM 73.4 °F 64.4 °F 73% 30.17 in 10.0 mi NNE 12.7 mph 24.2 mph 0.00 in Rain Light Rain
9:54 PM 72.0 °F 64.0 °F 76% 30.18 in 10.0 mi NNE 12.7 mph 24.2 mph 0.00 in Rain Light Rain
10:54 PM 70.0 °F 66.0 °F 87% 30.16 in 4.0 mi NNE 11.5 mph 28.8 mph 0.01 in Rain Rain
11:54 PM 71.1 °F 66.0 °F 84% 30.17 in 6.0 mi NE 10.4 mph 19.6 mph 0.03 in Rain Rain